RH
64 63 61 60 60 58 58 61 63 62 61 61 64 65 70 69 57 57 58 51 57 58 60 61 61 61 62 62 62 63 63 66 66
60 60 59 59 57 56 56 58 58 59 60 61 65 68 76 58 59 58 58 52 64 68 69 68 66 64 62 61 62 62 63 63 64
59 59 59 58 56 55 56 57 58 59 65 66 69 76 77 63 60 61 61 70 71 69 72 69 70 70 66 64 68 65 68 68 68
61 58 57 58 55 56 55 56 58 58 69 72 76 78 84 61 66 66 67 74 65 67 66 70 72 74 73 74 76 75 74 74 74
67 67 61 59 58 57 56 56 59 60 66 74 78 83 81 64 63 61 65 68 66 64 64 63 71 74 73 72 74 74 71 71 72
61 69 67 64 61 60 58 59 59 61 69 78 83 78 63 61 60 55 73 67 67 62 63 63 64 73 72 70 70 70 72 72 70
55 66 68 65 64 64 62 62 62 54 44 61 74 64 62 60 58 55 70 59 60 62 65 64 63 64 66 67 66 67 69 72 73
50 52 50 50 59 48 49 50 50 53 49 63 65 65 60 57 58 64 68 63 59 56 61 62 60 60 65 65 66 65 64 65 66
51 50 53 52 50 49 51 52 56 59 55 62 66 62 59 56 57 62 73 62 61 61 58 57 57 55 58 62 63 61 58 61 61
52 51 51 52 53 50 49 52 56 60 59 59 66 62 58 55 55 53 75 62 58 58 59 60 59 58 55 54 56 58 61 61 61
55 53 53 53 53 53 49 52 60 67 63 62 68 65 61 55 52 49 52 66 63 58 60 62 62 60 58 57 56 60 58 58 60
55 52 52 53 53 54 49 50 56 64 65 68 70 59 55 54 52 52 50 49 71 62 60 61 59 59 59 58 57 58 55 54 56
53 52 51 52 54 54 52 49 52 55 60 67 67 61 58 54 53 53 52 49 48 61 67 64 61 58 56 55 55 54 54 52 52
52 52 51 50 54 54 50 54 50 52 56 62 70 68 66 64 57 59 59 53 52 44 56 73 70 64 59 57 55 54 53 52 51
54 54 52 49 51 51 54 52 55 55 55 52 58 69 69 68 66 66 56 52 45 48 54 50 46 59 59 58 61 57 55 54 53
54 54 51 51 50 52 51 52 51 54 55 50 55 55 67 61 60 64 55 44 43 44 51 47 48 45 61 67 64 64 60 57 55
52 53 53 51 51 50 51 50 49 52 58 49 52 46 49 46 55 56 52 48 45 43 44 46 46 50 51 56 58 61 60 59 58
58 58 54 55 54 55 56 55 51 50 56 59 44 48 45 55 49 55 49 49 42 42 46 44 43 45 45 49 54 72 69 64 63
62 62 57 57 56 56 56 54 56 53 53 54 53 59 56 49 43 49 53 46 38 41 42 39 41 42 45 53 65 68 59 58 61
61 59 60 59 58 58 55 56 55 56 51 54 53 52 59 58 51 46 45 41 41 40 39 42 40 42 45 48 53 63 60 54 54
Wind_Speed
13 12 12 12 12 12 12 13 14 13 13 13 13 14 13 10 9 9 9 8 12 12 11 11 11 11 11 11 11 11 11 11 11
13 12 12 12 12 12 12 12 12 12 12 12 13 13 12 9 9 8 8 8 11 11 10 10 11 11 10 10 11 10 11 11 11
12 12 11 11 11 12 12 12 12 12 13 14 13 13 11 8 9 8 7 8 14 18 18 15 12 11 11 10 10 10 11 11 11
10 10 10 10 11 11 11 11 12 12 13 14 13 13 12 9 7 7 6 11 16 18 16 18 17 16 13 15 15 15 15 17 16
10 9 10 10 11 11 12 11 11 12 12 12 12 12 11 9 9 7 8 15 17 17 16 15 17 16 17 18 19 18 18 18 19
8 10 10 10 10 11 12 11 11 11 12 12 12 10 6 8 7 6 15 16 17 16 15 14 14 16 16 17 17 18 17 17 18
6 9 11 11 10 12 12 12 10 8 5 5 8 6 8 7 8 7 13 13 15 15 14 14 14 14 15 16 17 17 17 17 17
4 3 4 4 7 5 6 6 5 7 5 5 6 7 7 6 6 11 15 15 14 12 12 12 12 12 14 16 16 15 16 16 15
4 3 4 4 3 5 5 4 5 6 7 7 8 8 6 5 5 9 13 13 13 12 12 12 12 11 12 13 14 14 14 15 15
3 4 4 4 3 4 4 4 5 6 6 6 7 7 7 7 4 5 12 13 13 13 12 12 13 12 12 11 13 13 15 14 14
4 4 4 4 4 4 4 4 5 5 6 7 6 6 6 6 6 5 6 13 13 14 13 13 13 12 12 12 12 13 13 13 13
5 4 4 3 3 5 4 5 5 5 5 7 5 5 5 5 6 5 5 5 10 13 14 13 13 12 12 12 12 11 13 13 13
5 4 4 3 3 4 4 4 5 4 4 4 4 4 4 5 5 4 4 4 4 7 11 12 12 12 12 11 11 11 11 12 12
5 4 4 4 4 4 4 5 4 3 3 3 3 3 3 4 3 5 5 6 5 4 7 9 10 12 12 11 11 11 11 12 12
5 5 4 4 4 4 4 5 6 4 2 3 3 3 3 3 3 3 4 5 6 6 6 6 6 12 12 11 11 11 12 12 13
5 4 4 4 5 4 3 3 5 6 2 2 3 2 2 3 2 2 4 6 6 7 5 5 5 6 12 11 12 13 13 13 13
5 6 4 4 4 5 5 2 2 3 6 2 1 2 2 1 3 3 3 4 4 7 5 5 7 6 5 8 14 14 14 14 13
6 6 5 5 4 4 4 4 4 3 4 6 2 2 1 2 1 2 2 3 4 5 4 5 7 6 6 8 11 14 13 12 13
6 6 6 5 4 5 5 4 4 3 3 1 4 5 2 0 1 1 1 2 4 7 4 7 6 7 6 10 12 13 13 14 15
6 5 6 6 4 5 5 5 5 3 2 2 1 3 3 3 1 4 2 4 2 2 6 5 5 6 7 8 10 15 17 18 18
Wind_Direction
85 81 78 78 75 71 73 76 76 71 71 74 75 68 61 60 58 51 42 47 51 51 49 43 42 44 43 43 42 40 38 34 23
88 84 82 80 75 72 76 80 75 71 70 81 79 68 60 61 57 46 30 47 57 58 55 53 51 47 45 41 45 44 46 41 35
87 82 78 75 72 70 73 74 74 74 78 89 82 70 60 62 52 39 29 40 65 54 49 48 46 52 52 45 40 46 45 47 40
78 76 86 76 78 73 75 75 74 74 86 87 82 71 61 63 48 41 51 49 53 46 42 35 39 46 52 49 48 51 46 44 37
75 60 73 79 78 77 77 74 73 71 78 84 77 71 63 60 49 44 54 53 50 47 37 30 37 41 50 44 40 40 36 35 32
64 61 65 67 70 72 74 71 72 73 67 78 76 69 61 59 48 46 43 54 53 50 41 33 33 41 45 44 34 28 30 31 31
71 62 56 58 59 63 66 64 64 67 72 84 72 73 71 62 56 51 44 44 49 43 38 33 29 30 40 41 36 23 26 28 29
68 68 55 54 47 55 60 60 60 66 73 84 87 84 75 68 62 49 50 46 42 43 43 33 36 31 33 40 37 25 23 20 19
82 77 70 65 55 69 61 69 71 72 76 92 92 85 80 75 69 57 49 47 42 37 33 36 33 30 39 45 39 28 22 19 14
87 78 77 75 74 68 69 75 73 73 77 85 94 91 86 77 74 68 47 47 42 38 39 41 37 32 33 33 36 26 21 16 13
96 84 72 73 70 76 71 78 79 78 84 87 97 94 84 81 77 69 59 51 48 47 47 43 38 32 34 30 33 27 18 15 12
101 91 77 69 79 89 83 82 87 91 85 88 98 92 89 87 83 71 63 59 50 46 45 43 39 33 30 23 24 22 17 13 10
107 100 80 79 87 86 78 73 85 87 89 106 92 93 91 90 85 78 66 58 48 42 37 38 34 27 21 17 17 15 12 8 5
106 98 88 78 88 79 83 69 65 75 91 108 104 95 98 92 95 86 75 60 50 28 27 29 22 11 5 4 6 6 2 358 356
115 106 99 96 94 85 79 83 63 67 80 101 96 86 90 94 90 88 91 73 49 36 48 30 16 11 1 353 352 351 349 349 348
111 101 95 85 81 83 105 96 56 49 39 134 98 78 58 80 49 104 103 82 51 42 43 32 17 5 9 13 352 338 330 329 333
120 118 108 103 100 79 65 96 110 58 20 81 86 94 137 83 47 91 113 85 33 30 24 19 14 9 4 356 344 333 322 311 313
123 118 115 105 96 87 72 65 84 109 50 42 50 143 192 310 77 88 113 71 17 12 12 13 2 2 356 351 343 341 334 315 306
127 123 117 108 104 97 86 69 76 103 95 77 46 58 38 293 288 161 200 349 355 357 2 348 354 0 355 348 344 346 357 348 333
125 123 120 112 105 98 99 94 83 77 94 71 99 72 65 64 317 286 299 318 317 335 334 339 346 357 348 344 344 328 331 331 326